| time (UTC) | temp C | wind direction | speed KPH | gust KPH | rain 1hr cm | rain 24hr cm | rain mn cm | humidity % | barometer mb |
| 20260504210005 | 9 | 270 | 9.7 | 11.3 | 0.00 | 0.00 | 0.00 | 95 | 1021.5 |
| 20260504204505 | 9 | 270 | 9.7 | 11.3 | 0.00 | 0.00 | 0.00 | 95 | 1021.5 |
| 20260504203005 | 9 | 270 | 8.0 | 9.7 | 0.00 | 0.00 | 0.00 | 95 | 1021.3 |
| 20260504201504 | 9 | 270 | 8.0 | 9.7 | 0.00 | 0.00 | 0.00 | 95 | 1021.3 |
| 20260504200005 | 9 | 292 | 8.0 | 9.7 | 0.00 | 0.00 | 0.00 | 95 | 1021.1 |
| 20260504194505 | 9 | 292 | 8.0 | 9.7 | 0.00 | 0.00 | 0.00 | 95 | 1021.1 |
| 20260504193005 | 9 | 270 | 8.0 | 9.7 | 0.00 | 0.00 | 0.00 | 95 | 1020.9 |
| 20260504191504 | 9 | 270 | 8.0 | 9.7 | 0.00 | 0.00 | 0.00 | 95 | 1020.9 |
| 20260504190004 | 9 | 270 | 8.0 | 11.3 | 0.00 | 0.00 | 0.00 | 95 | 1020.8 |
| 20260504184505 | 9 | 270 | 8.0 | 11.3 | 0.00 | 0.00 | 0.00 | 95 | 1020.8 |
| 20260504183005 | 9 | 292 | 8.0 | 8.0 | 0.00 | 0.00 | 0.00 | 95 | 1020.6 |
| 20260504181505 | 9 | 292 | 8.0 | 8.0 | 0.00 | 0.00 | 0.00 | 95 | 1020.6 |
| 20260504180005 | 10 | 292 | 8.0 | 9.7 | 0.00 | 0.00 | 0.00 | 93 | 1020.6 |
| 20260504174505 | 10 | 292 | 8.0 | 9.7 | 0.00 | 0.00 | 0.00 | 93 | 1020.6 |
| 20260504173004 | 10 | 292 | 11.3 | 12.9 | 0.00 | 0.00 | 0.00 | 94 | 1020.7 |
| 20260504171506 | 10 | 292 | 11.3 | 12.9 | 0.00 | 0.00 | 0.00 | 94 | 1020.7 |
| 20260504081505 | 17 | 225 | 14.5 | 24.1 | 0.00 | 0.00 | 0.00 | 59 | 1015.9 |
| 20260504050004 | 20 | 292 | 24.1 | 35.4 | 0.00 | 0.00 | 0.00 | 52 | 1014.1 |
| 20260504044505 | 20 | 292 | 24.1 | 35.4 | 0.00 | 0.00 | 0.00 | 52 | 1014.1 |
| 20260504043005 | 20 | 292 | 25.7 | 41.8 | 0.00 | 0.00 | 0.00 | 50 | 1013.9 |
| 20260504041504 | 20 | 292 | 25.7 | 41.8 | 0.00 | 0.00 | 0.00 | 50 | 1013.9 |
| 20260504040004 | 19 | 292 | 27.4 | 40.2 | 0.00 | 0.00 | 0.00 | 53 | 1014.0 |
| 20260504034505 | 19 | 292 | 27.4 | 40.2 | 0.00 | 0.00 | 0.00 | 53 | 1014.0 |
| 20260504033004 | 20 | 270 | 25.7 | 38.6 | 0.00 | 0.00 | 0.00 | 51 | 1014.3 |
| 20260504031505 | 20 | 270 | 25.7 | 38.6 | 0.00 | 0.00 | 0.00 | 51 | 1014.3 |
| 20260504030005 | 19 | 292 | 24.1 | 37.0 | 0.00 | 0.00 | 0.00 | 58 | 1014.8 |
| 20260504024505 | 19 | 292 | 24.1 | 37.0 | 0.00 | 0.00 | 0.00 | 58 | 1014.8 |
| 20260504023004 | 18 | 270 | 24.1 | 35.4 | 0.00 | 0.00 | 0.00 | 61 | 1014.8 |
| 20260504021504 | 18 | 270 | 24.1 | 35.4 | 0.00 | 0.00 | 0.00 | 61 | 1014.8 |
| 20260504020004 | 18 | 292 | 24.1 | 37.0 | 0.00 | 0.00 | 0.00 | 60 | 1014.9 |
| 20260504014505 | 18 | 292 | 24.1 | 37.0 | 0.00 | 0.00 | 0.00 | 60 | 1014.9 |
| 20260504013005 | 17 | 292 | 27.4 | 41.8 | 0.00 | 0.00 | 0.00 | 63 | 1014.8 |
| 20260504011504 | 17 | 292 | 27.4 | 41.8 | 0.00 | 0.00 | 0.00 | 63 | 1014.8 |
| 20260504010005 | 16 | 292 | 27.4 | 41.8 | 0.00 | 0.00 | 0.00 | 65 | 1014.7 |
| 20260504004505 | 16 | 292 | 27.4 | 41.8 | 0.00 | 0.00 | 0.00 | 65 | 1014.7 |
| 20260504003005 | 16 | 292 | 22.5 | 35.4 | 0.00 | 0.00 | 0.00 | 68 | 1014.4 |
| 20260504001504 | 16 | 292 | 22.5 | 35.4 | 0.00 | 0.00 | 0.00 | 68 | 1014.4 |
| 20260504000005 | 15 | 315 | 22.5 | 29.0 | 0.00 | 0.00 | 0.00 | 70 | 1014.3 |
| 20260503234505 | 15 | 315 | 22.5 | 29.0 | 0.00 | 0.00 | 0.00 | 70 | 1014.3 |
| 20260503233004 | 14 | 315 | 16.1 | 25.7 | 0.00 | 0.00 | 0.00 | 72 | 1014.4 |
| 20260503231505 | 14 | 315 | 16.1 | 25.7 | 0.00 | 0.00 | 0.00 | 72 | 1014.4 |
| 20260503230005 | 13 | 337 | 14.5 | 24.1 | 0.00 | 0.00 | 0.00 | 76 | 1014.0 |
| 20260503224504 | 13 | 337 | 14.5 | 24.1 | 0.00 | 0.00 | 0.00 | 76 | 1014.0 |
| 20260503223004 | 12 | 337 | 14.5 | 24.1 | 0.00 | 0.00 | 0.00 | 78 | 1013.8 |
| 20260503221504 | 12 | 337 | 14.5 | 24.1 | 0.00 | 0.00 | 0.00 | 78 | 1013.8 |
| 20260503220004 | 12 | 337 | 12.9 | 24.1 | 0.00 | 0.00 | 0.00 | 80 | 1013.6 |
| 20260503214505 | 12 | 337 | 12.9 | 24.1 | 0.00 | 0.00 | 0.00 | 80 | 1013.6 |
| 20260503213005 | 12 | 315 | 14.5 | 22.5 | 0.00 | 0.00 | 0.00 | 81 | 1013.4 |
| 20260503211504 | 12 | 315 | 14.5 | 22.5 | 0.00 | 0.00 | 0.00 | 81 | 1013.4 |